| |
Missouri Department of Transportation

Social Media Facebook Twitter Flickr Instagram YouTube RSS

Current METAR Information for All MoDOT Locations 
AWOS Home - General Info for all Airports
Current AWOS for all Airports - Current METAR for all Airports
Glossary - Disclaimer - Other Links


Automated Weather Observation System
Date: 04-26-2015
 
Location Current METAR Record
HANNIBAL METAR KHAE 270145Z AUTO 00000KT 10SM CLR 12/M01 A3002 RMK AO2
HARRISONVILLE  No current data available
LEBANON METAR KLBO 270145Z AUTO 05005KT 10SM CLR 12/03 A2995 RMK AO2
MALDEN  No current data available
MARSHALL METAR KMHL 270151Z AUTO 06006KT 10SM CLR 13/04 A3000 RMK AO2
MARYVILLE  No current data available
MEXICO METAR KMYJ 270159Z AUTO 03006KT 10SM CLR 12/05 A3000 RMK AO2
MOBERLY  No current data available
NEVADA METAR KNVD 270222Z AUTO 03004KT 10SM CLR 11/08 A2994 RMK AO2
PIEDMONT  No current data available
SIKESTON  No current data available
SULLIVAN METAR KUUV 270147Z AUTO 03004KT 10SM CLR 11/01 A3000 RMK AO2
WARSAW  No current data available
About Us
How Do I...
Contact Us
Missouri Department of Transportation
Central Office
105 W. Capitol Avenue
Jefferson City, MO 65102
1-888-ASK-MODOT (275-6636)
1-866-831-6277 (Motor Carrier Services)
Drivers License Offices
horz_bar
| | |
Missouri State Government
© 2013 Missouri Department of Transportation. All Rights Reserved.   Privacy Policy.
 
 
 
 
RSS FeedYoutubeBlogFlickrTwitter Facebook